sat.trackr.live / text

‹ back to catalog

STARLINK-34906

NORAD 65896 · 2025-224Q

PAYLOAD ACTIVE UNKNOWN

§ Identity

Operator
Country
US
Launch date
2025-10-07
Launch site
AFETR
Launch vehicle
Mass (kg)
RCS (m²)

Purposes: comms

External: N2YO · Heavens-Above · Gunter

§ Orbital elements

Epoch: 2026-05-25T00:22:53.258016Z

Period
94.01 min
Inclination
53.1590°
Eccentricity
0.0000873
Mean motion
15.31714861 rev/d
Perigee alt
470.1 km
Apogee alt
471.3 km
Semi-major
6,848.8 km
B*
3.5330e-4
RAAN
16.5712°
Arg perigee
111.0948°
Mean anomaly
249.0147°
Rev number
3,656

§ Raw data

STARLINK-349061 65896U 25224Q   26145.01589419  .00010619  00000+0  35330-3 0  99972 65896  53.1590  16.5712 0000873 111.0948 249.0147 15.31714861 36567

JSON: /api/v1/satellites/65896 · /tle

For live sub-satellite position, see the globe view (requires WebGL).

§ Visibility from observer

Set your observer location to see the next 7 days of passes ≥ 10°. The values pass through the URL so the page stays shareable.

No JS? Fill the form by hand. The geolocation button needs JavaScript.